KLM897 EHAM-ZBAA

Flight info

Callsign KLM897
Flight time N/A
Altitude 35000
Route ARNEM L620 NOMKA DCT SUVUT L620 OMELO DCT PITOK DCT PERIT DCT BADOR DCT ROMAG DCT UDROS/N0488F370 UM859 KARDE UN644 ROLIN N644 ODILI DCT BARAD M747 SUBUT T916 BALUN/K0919F370 T916 GITIM/K0902F390 T916 PIGAL M610 RULAD/K0898S1190 A343 POSOT B215 FKG W188 LIKMI W270 DKO W69 GUVBA GUVBA9Y
Aircraft B789/H-SDE1E2E3FGHIJ2J3J4J5M1RWXY/LB1D1

Departure

Time 2026-05-07 15:39
Airport Amsterdam Airport Schiphol (EHAM)

Arrival

Time N/A
Airport Beijing Capital International Airport (ZBAA)
Time Latitude Longitude Altitude Speed Heading
2026-05-07 15:05 52.31229 4.76291 6 ft 0 kts 266°
2026-05-07 15:06 52.31229 4.76292 6 ft 0 kts 266°
2026-05-07 15:27 52.31230 4.76305 5 ft 3 kts 266°
2026-05-07 15:27 52.31231 4.76349 6 ft 3 kts 268°
2026-05-07 15:27 52.31232 4.76392 7 ft 3 kts 262°
2026-05-07 15:28 52.31236 4.76426 6 ft 4 kts 241°
2026-05-07 15:28 52.31253 4.76444 7 ft 3 kts 202°
2026-05-07 15:28 52.31274 4.76459 7 ft 4 kts 210°
2026-05-07 15:28 52.31292 4.76477 6 ft 4 kts 212°
2026-05-07 15:29 52.31315 4.76501 6 ft 4 kts 213°
2026-05-07 15:29 52.31338 4.76525 7 ft 4 kts 214°
2026-05-07 15:29 52.31355 4.76545 6 ft 1 kts 214°
2026-05-07 15:29 52.31344 4.76526 8 ft 4 kts 234°
2026-05-07 15:30 52.31343 4.76487 6 ft 4 kts 277°
2026-05-07 15:30 52.31348 4.76446 4 ft 4 kts 291°
2026-05-07 15:30 52.31367 4.76422 4 ft 4 kts 339°
2026-05-07 15:30 52.31373 4.76419 4 ft 0 kts 342°
2026-05-07 15:34 52.31378 4.76417 4 ft 1 kts 342°
2026-05-07 15:34 52.31391 4.76410 4 ft 3 kts 342°
2026-05-07 15:34 52.31424 4.76393 4 ft 7 kts 342°
2026-05-07 15:34 52.31480 4.76362 4 ft 10 kts 337°
2026-05-07 15:35 52.31530 4.76270 4 ft 12 kts 290°
2026-05-07 15:35 52.31535 4.76113 4 ft 16 kts 266°
2026-05-07 15:35 52.31527 4.75917 4 ft 19 kts 267°
2026-05-07 15:35 52.31520 4.75686 4 ft 22 kts 266°
2026-05-07 15:36 52.31510 4.75413 4 ft 25 kts 266°
2026-05-07 15:36 52.31501 4.75113 4 ft 28 kts 267°
2026-05-07 15:36 52.31491 4.74819 4 ft 24 kts 267°
2026-05-07 15:36 52.31505 4.74680 4 ft 6 kts 322°
2026-05-07 15:37 52.31540 4.74665 4 ft 4 kts 356°
2026-05-07 15:37 52.31546 4.74665 4 ft 0 kts 356°
2026-05-07 15:37 52.31547 4.74665 4 ft 0 kts 356°
2026-05-07 15:37 52.31572 4.74662 4 ft 7 kts 356°
2026-05-07 15:38 52.31639 4.74680 5 ft 12 kts 28°
2026-05-07 15:38 52.31670 4.74830 4 ft 24 kts 86°
2026-05-07 15:38 52.31688 4.75396 2 ft 77 kts 86°
2026-05-07 15:38 52.31725 4.76539 3 ft 126 kts 86°
2026-05-07 15:39 52.31784 4.78210 7 ft 168 kts 86°
2026-05-07 15:39 52.31831 4.80143 410 ft 163 kts 83°
2026-05-07 15:39 52.31886 4.81943 952 ft 156 kts 83°
2026-05-07 15:39 52.31959 4.83721 1066 ft 182 kts 83°
2026-05-07 15:40 52.32043 4.85773 1725 ft 180 kts 84°
2026-05-07 15:40 52.31845 4.87952 1848 ft 217 kts 111°
2026-05-07 15:40 52.31159 4.90301 2132 ft 245 kts 114°
2026-05-07 15:40 52.30410 4.92930 2721 ft 258 kts 111°
2026-05-07 15:41 52.29711 4.95614 3734 ft 258 kts 111°
2026-05-07 15:41 52.29230 4.98300 4588 ft 260 kts 102°
2026-05-07 15:41 52.28738 5.01159 5435 ft 262 kts 108°
2026-05-07 15:41 52.28199 5.04023 6269 ft 265 kts 107°
2026-05-07 15:42 52.27691 5.06914 7038 ft 268 kts 107°
2026-05-07 15:42 52.27181 5.09893 7751 ft 274 kts 107°
2026-05-07 15:42 52.26682 5.12772 8419 ft 279 kts 107°
2026-05-07 15:42 52.26113 5.16008 9187 ft 285 kts 107°
2026-05-07 15:43 52.25562 5.19143 9898 ft 291 kts 107°
2026-05-07 15:43 52.25001 5.22336 10270 ft 308 kts 107°
2026-05-07 15:43 52.24420 5.25849 10343 ft 334 kts 100°
2026-05-07 15:43 52.24244 5.29771 10412 ft 358 kts 94°
2026-05-07 15:44 52.24024 5.33938 10731 ft 372 kts 96°
2026-05-07 15:44 52.23781 5.38073 11492 ft 374 kts 95°
2026-05-07 15:44 52.23567 5.42343 12128 ft 378 kts 95°
2026-05-07 15:44 52.23366 5.46631 12810 ft 381 kts 95°
2026-05-07 15:45 52.23140 5.50973 13465 ft 385 kts 96°
2026-05-07 15:45 52.22510 5.55222 14064 ft 387 kts 112°
2026-05-07 15:45 52.21522 5.59246 14583 ft 391 kts 112°
2026-05-07 15:45 52.20822 5.62042 14986 ft 393 kts 112°
2026-05-07 15:46 52.19748 5.66412 15560 ft 397 kts 112°
2026-05-07 15:46 52.18739 5.70614 16124 ft 400 kts 112°
2026-05-07 15:46 52.17713 5.74852 16666 ft 403 kts 112°
2026-05-07 15:47 52.16662 5.79134 17206 ft 407 kts 112°
2026-05-07 15:47 52.15609 5.83426 17758 ft 410 kts 112°
2026-05-07 15:47 52.14548 5.87761 18281 ft 414 kts 112°
2026-05-07 15:47 52.13477 5.92131 18757 ft 416 kts 112°
2026-05-07 15:48 52.12408 5.96472 19207 ft 419 kts 112°
2026-05-07 15:48 52.11321 6.00876 19648 ft 422 kts 112°
2026-05-07 15:48 52.10225 6.05316 20082 ft 424 kts 112°
2026-05-07 15:48 52.09388 6.09916 20485 ft 427 kts 99°
2026-05-07 15:49 52.08903 6.14722 20846 ft 430 kts 99°